Change the Weather History Date:

Monday, April 30, 2012

  Actual Average Record
Temperature  
Mean Temperature 45 °F 45 °F  
Max Temperature 57 °F 58 °F 83 °F (1926)
Min Temperature 33 °F 33 °F 5 °F (1909)
Degree Days  
Heating Degree Days 20 20  
Month to date heating degree days 631 709  
Since 1 July heating degree days 6726 7507  
Cooling Degree Days 0 0  
Month to date cooling degree days 0 0  
Year to date cooling degree days 0 0  
Moisture  
Dew Point 35 °F    
Average Humidity 65    
Maximum Humidity 89    
Minimum Humidity 41    
Precipitation  
Precipitation 0.11 in 0.06 in 0.52 in (1951)
Month to date precipitation 3.36 1.41  
Year to date precipitation 5.31 3.41  
Snow  
Snow 0.00 in - - ()
Snow Depth -    
Sea Level Pressure  
Sea Level Pressure 29.68 in    
Wind  
Wind Speed 12 mph (SW)    
Max Wind Speed 31 mph    
Max Gust Speed 46 mph    
Visibility 10 miles    
Events Rain    
T = Trace of Precipitation, MM = Missing Value Source: NWS Daily Summary

Daily Weather History Graph

Daily Weather History Graph

Search for Another Location

Airport or City:

Trip Planner

Search our weather history database for the weather conditions in past years. The results will help you decide how hot, cold, wet, or windy it might be!

Date:

Astronomy

Apr. 30, 2012 Rise Set
Actual Time 6:02 AM MDT 8:27 PM MDT
Civil Twilight 5:29 AM MDT 9:02 PM MDT
Nautical Twilight 4:46 AM MDT 9:44 PM MDT
Astronomical Twilight 3:58 AM MDT 10:33 PM MDT
Moon 2:05 PM MDT (4/30) 2:53 AM MDT (4/30)
Length of Visible Light 15h 32m
Length of Day
14h 25m
Waxing Gibbous, 64% of the Moon is Illuminated
Apr 30
Waxing Gibbous
May 5
Full
May 12
Last Quarter
May 20
New
May 28
First Quarter

Hourly Weather History & Observations

Time (MDT) Temp. Windchill Dew Point Humidity Pressure Visibility Wind Dir Wind Speed Gust Speed Precip Events Conditions
12:54 AM 41.0 °F 33.5 °F 30.0 °F 65% 29.87 in 10.0 mi SW 13.8 mph - N/A   Clear
1:54 AM 39.0 °F 31.4 °F 30.0 °F 70% 29.85 in 10.0 mi SSW 12.7 mph - N/A   Clear
2:54 AM 39.9 °F 32.9 °F 28.9 °F 65% 29.83 in 10.0 mi SW 11.5 mph - N/A   Clear
3:54 AM 39.9 °F 32.5 °F 28.9 °F 65% 29.81 in 10.0 mi SW 12.7 mph - N/A   Clear
4:54 AM 39.0 °F 30.6 °F 28.9 °F 67% 29.79 in 10.0 mi SW 15.0 mph - N/A   Clear
5:54 AM 37.9 °F 30.5 °F 28.0 °F 68% 29.78 in 10.0 mi SW 11.5 mph - N/A   Clear
6:54 AM 34.0 °F 29.8 °F 28.0 °F 79% 29.77 in 10.0 mi SE 4.6 mph - N/A   Clear
7:54 AM 44.1 °F 41.5 °F 30.9 °F 60% 29.73 in 10.0 mi ENE 4.6 mph - N/A   Clear
8:54 AM 46.9 °F - 33.1 °F 59% 29.71 in 10.0 mi ESE 5.8 mph - N/A   Clear
9:54 AM 55.0 °F - 35.1 °F 47% 29.67 in 10.0 mi SSW 17.3 mph - N/A   Clear
10:54 AM 55.9 °F - 34.0 °F 44% 29.64 in 10.0 mi SW 18.4 mph - N/A   Scattered Clouds
11:54 AM 55.0 °F - 32.0 °F 42% 29.64 in 10.0 mi West 18.4 mph 33.4 mph 0.00 in   Overcast
12:54 PM 51.1 °F - 37.0 °F 59% 29.63 in 10.0 mi West 12.7 mph 24.2 mph 0.00 in Rain Light Rain
1:54 PM 52.0 °F - 39.9 °F 63% 29.62 in 10.0 mi West 10.4 mph - 0.01 in Rain Light Rain
2:54 PM 50.0 °F - 41.0 °F 71% 29.62 in 10.0 mi WSW 11.5 mph - 0.01 in Rain Light Rain
3:54 PM 51.1 °F - 42.1 °F 71% 29.61 in 10.0 mi WSW 15.0 mph - 0.00 in Rain Light Rain
4:54 PM 54.0 °F - 42.1 °F 64% 29.57 in 10.0 mi SW 15.0 mph - 0.01 in   Overcast
5:54 PM 55.0 °F - 41.0 °F 59% 29.55 in 10.0 mi SW 18.4 mph 24.2 mph N/A   Mostly Cloudy
9:54 PM 43.0 °F 37.2 °F 39.9 °F 89% 29.56 in 10.0 mi South 10.4 mph - 0.02 in   Overcast
10:54 PM 42.1 °F - 39.0 °F 89% 29.56 in 10.0 mi Calm Calm - N/A   Clear
11:54 PM 44.1 °F 37.7 °F 37.9 °F 79% 29.57 in 10.0 mi SW 12.7 mph - N/A   Mostly Cloudy